[[[{"header":{"parameterUnit":"kt","parameterCategory":2,"dx":1,"dy":1,"la1":30.253999710083008,"la2":30.299108505249023,"lo1":-89.0895004272461,"lo2":-89.04439544677734,"nx":28,"ny":28,"refTime":"2022-09-21T09:00:00:Z","depth":0,"parameterNumber":1,"parameterNumberName":"U-component_of_WINDS"},"data":[0.1402,0.1373,0.1377,0.1345,0.1344,0.1323,0.1316,0.1308,0.1303,0.1278,0.1264,0.1265,0.126,0.1244,0.1228,0.1228,0.122,0.1208,0.121,0.1264,0.1272,0.1279,0.1285,0.1207,0.1207,0.1151,0.1151,0.1151,0.1442,0.144,0.1425,0.1413,0.14,0.1415,0.1406,0.1393,0.1374,0.1367,0.1354,0.1331,0.1314,0.1314,0.1297,0.1283,0.1288,0.1278,0.1277,0.1276,0.1335,0.1342,0.1274,0.1274,0.1274,0.1274,0.1274,0.1274,0.1516,0.1499,0.1494,0.1477,0.1472,0.1464,0.1447,0.1449,0.1433,0.1417,0.1425,0.1402,0.1395,0.1377,0.1371,0.1354,0.1364,0.1354,0.1351,0.1347,0.1342,0.1418,0.1351,0.1352,0.1352,0.1352,0.1352,0,0.1571,0.1575,0.1561,0.1547,0.1535,0.1525,0.1516,0.1507,0.1516,0.1503,0.1484,0.1473,0.1452,0.1434,0.1419,0.1415,0.1426,0.1429,0.1421,0.1415,0.1412,0.1411,0.1505,0.1429,0.143,0.1431,0.1431,0.1431,0.1643,0.1623,0.1619,0.1609,0.1605,0.1587,0.1578,0.1587,0.1576,0.1566,0.155,0.1533,0.1519,0.1487,0.1486,0.147,0.1475,0.1445,0.1472,0.1469,0.1471,0.1471,0.1468,0.1439,0.1438,0.1437,0.1436,0,0.1683,0.1689,0.1659,0.1657,0.1656,0.1634,0.1632,0.1615,0.1617,0.1594,0.1589,0.1592,0.1572,0.1577,0.1556,0.1558,0.152,0.1527,0.1523,0.1523,0.1495,0.1497,0.1409,0.1397,0.1482,0.1481,0.148,0,0.1746,0.1719,0.1729,0.1711,0.1682,0.1692,0.1662,0.1661,0.1656,0.1637,0.1652,0.1634,0.1643,0.1626,0.1629,0.16,0.1596,0.1595,0.1596,0.1592,0.1592,0.1583,0.1585,0.1602,0.1602,0.1603,0.1603,0,0.1805,0.178,0.1751,0.1746,0.174,0.1727,0.1723,0.1717,0.1707,0.1695,0.1688,0.1673,0.1664,0.1652,0.1656,0.1674,0.1621,0.1646,0.162,0.1619,0.1605,0.1605,0.1529,0.1604,0.1604,0.1604,0.1604,0,0.1855,0.1844,0.1802,0.1797,0.179,0.1771,0.1757,0.1742,0.1734,0.1736,0.1726,0.1735,0.1711,0.1735,0.1701,0.1723,0.1713,0.1711,0.1709,0.1704,0.173,0.1683,0.1614,0.1605,0.1704,0.1704,0.1705,0,0.1921,0.188,0.1888,0.1849,0.183,0.1847,0.1827,0.1819,0.1819,0.1803,0.1803,0.1784,0.1804,0.1798,0.1781,0.1779,0.1752,0.1784,0.1757,0.1756,0.1756,0.1693,0.1679,0.1629,0.1716,0.1715,0.1714,0,0.1971,0.1965,0.1957,0.1951,0.1943,0.1927,0.1904,0.1888,0.1877,0.1867,0.1846,0.1821,0.1834,0.1824,0.183,0.1812,0.1771,0.1827,0.1827,0.1815,0.1723,0.171,0.1702,0.1778,0.1777,0.1776,0.1723,0,0.2041,0.2022,0.2002,0.1989,0.1978,0.1954,0.1958,0.1946,0.1953,0.1952,0.1923,0.1917,0.1899,0.1892,0.1897,0.1856,0.1862,0.1876,0.1897,0.1857,0.1839,0.1832,0.1923,0.1924,0.1925,0.1925,0,0,0.2101,0.2073,0.2082,0.206,0.2051,0.2068,0.2041,0.2034,0.2019,0.2012,0.2025,0.1987,0.1981,0.1945,0.1933,0.1926,0.1918,0.1932,0.1877,0.1871,0.1866,0.1847,0.184,0.1926,0.1926,0.1926,0.1927,0,0.2127,0.2122,0.2097,0.209,0.2081,0.2082,0.2076,0.2069,0.2068,0.204,0.2052,0.2035,0.2005,0.1996,0.1987,0.1938,0.1946,0.1932,0.1903,0.1882,0.1876,0.1871,0.1851,0.1844,0.1928,0.1928,0.1928,0,0.2175,0.2171,0.2159,0.2141,0.2134,0.2115,0.2139,0.2118,0.2103,0.2121,0.2092,0.2089,0.2077,0.2043,0.2028,0.2038,0.1971,0.1994,0.199,0.1987,0.1967,0.196,0.1953,0.2039,0.2039,0.204,0,0,0.2197,0.2179,0.2176,0.2146,0.2142,0.2143,0.2133,0.2138,0.2128,0.2124,0.212,0.2109,0.2091,0.2079,0.2063,0.2025,0.2022,0.2007,0.2002,0.1998,0.1993,0.1971,0.1964,0.2041,0.2041,0.2041,0,0,0.2206,0.2202,0.221,0.2176,0.2167,0.2161,0.2142,0.2152,0.2137,0.214,0.2146,0.2144,0.2112,0.2107,0.2126,0.207,0.2091,0.2087,0.2073,0.2067,0.2062,0.2062,0.2148,0,0,0,0,0,0.2234,0.2203,0.221,0.2205,0.2181,0.2158,0.2154,0.2159,0.2174,0.2159,0.2157,0.2168,0.2119,0.2136,0.213,0.2108,0.2059,0.2056,0.2053,0.2027,0.202,0.2014,0,0,0,0,0,0,0.2232,0.2226,0.2211,0.2204,0.2199,0.2159,0.2185,0.2186,0.2176,0.2179,0.2168,0.2167,0.217,0.2139,0.2134,0.2113,0.215,0.2058,0.2055,0.2053,0.2024,0.2019,0.2014,0,0,0,0,0,0.223,0.2225,0.2185,0.2204,0.22,0.2199,0.2187,0.2187,0.218,0.2175,0.2175,0.2184,0.217,0.2166,0.2136,0.2115,0.2153,0.2152,0.2056,0.2054,0.2052,0.2021,0,0,0,0,0,0,0.2229,0.2225,0.2184,0.2183,0.2216,0.2201,0.2199,0.2188,0.2177,0.2177,0.2192,0.2194,0.2169,0.2166,0.2162,0.2115,0.2156,0.2154,0.2153,0.2055,0.2053,0.2051,0,0,0,0,0,0,0.2228,0.2224,0.2183,0.2198,0.2199,0.2203,0.2201,0.2176,0.2177,0.2194,0.2195,0.2193,0.2173,0.2166,0.2163,0.2124,0.2159,0.2157,0.2156,0.2155,0.2053,0.2052,0,0,0,0,0,0,0.2226,0.2223,0.2199,0.2199,0.2199,0.2185,0.2181,0.2155,0.2191,0.2194,0.2194,0.2195,0.2173,0.2171,0.2164,0.2126,0.2125,0.2159,0.2157,0.2156,0.2156,0,0,0,0,0,0,0,0.2225,0.2247,0.2192,0.2199,0.22,0.2171,0.217,0.217,0.2191,0.2192,0.2193,0.2195,0.217,0.2168,0.2166,0.2127,0,0,0.2159,0.2158,0,0,0,0,0,0,0,0,0.2249,0.2247,0.2192,0.2192,0.2191,0.2171,0.217,0.217,0.2191,0.2192,0.2193,0.2194,0.2169,0.2168,0.2166,0,0,0,0,0,0,0,0,0,0,0,0,0,0,0,0.2192,0.2192,0,0.2171,0.217,0.217,0.2191,0.2192,0.2193,0.2194,0.2169,0.2167,0.2166,0,0,0,0,0,0,0,0,0,0,0,0,0,0,0,0,0,0,0,0,0,0,0,0,0,0,0,0,0,0,0,0,0,0,0,0,0,0,0,0,0,0,0,0,0,0,0,0,0,0,0,0,0,0,0,0,0,0,0,0,0,0,0,0,0,0,0,0,0]}],[{"header":{"parameterUnit":"kt","parameterCategory":2,"dx":1,"dy":1,"la1":30.253999710083008,"la2":30.299108505249023,"lo1":-89.0895004272461,"lo2":-89.04439544677734,"nx":28,"ny":28,"refTime":"2022-09-21T09:00:00:Z","depth":0,"parameterNumber":2,"parameterNumberName":"V-component_of_WINDS"},"data":[-6.873,-6.8796,-6.8801,-6.8878,-6.8895,-6.8948,-6.8968,-6.8995,-6.9016,-6.9078,-6.9114,-6.9123,-6.9145,-6.9187,-6.9225,-6.9228,-6.9244,-6.9266,-6.9266,-6.9167,-6.9154,-6.9141,-6.9127,-6.9269,-6.9269,-6.9368,-6.9369,-6.937,-6.8664,-6.8682,-6.8724,-6.8767,-6.8802,-6.8786,-6.8818,-6.8848,-6.8895,-6.892,-6.8955,-6.9009,-6.905,-6.9063,-6.9104,-6.9133,-6.9127,-6.9144,-6.9143,-6.9147,-6.9041,-6.9027,-6.9149,-6.9149,-6.9149,-6.9149,-6.9149,-6.9149,-6.8544,-6.8583,-6.8612,-6.8656,-6.8678,-6.8706,-6.8743,-6.8754,-6.8792,-6.8836,-6.883,-6.8882,-6.8906,-6.8954,-6.897,-6.901,-6.899,-6.9009,-6.9015,-6.902,-6.9028,-6.8891,-6.9015,-6.9015,-6.9015,-6.9014,-6.9014,0,-6.8459,-6.8461,-6.8499,-6.854,-6.8572,-6.8602,-6.8631,-6.8653,-6.8653,-6.8684,-6.8729,-6.8755,-6.8806,-6.8848,-6.8884,-6.8896,-6.888,-6.8876,-6.889,-6.8896,-6.8898,-6.8901,-6.8732,-6.8873,-6.8872,-6.8871,-6.887,-6.887,-6.8342,-6.8384,-6.8414,-6.844,-6.8456,-6.8498,-6.8523,-6.852,-6.8547,-6.8579,-6.8611,-6.8653,-6.8686,-6.8755,-6.8763,-6.88,-6.8792,-6.8847,-6.8797,-6.8802,-6.8797,-6.8795,-6.8801,-6.8857,-6.8858,-6.886,-6.8861,0,-6.8276,-6.8281,-6.8347,-6.837,-6.8378,-6.8422,-6.8441,-6.8477,-6.8482,-6.8531,-6.8543,-6.8549,-6.8592,-6.8591,-6.8637,-6.8635,-6.8709,-6.8699,-6.8703,-6.8701,-6.8752,-6.8749,-6.8911,-6.8934,-6.8783,-6.8785,-6.8786,0,-6.8178,-6.8232,-6.8237,-6.8275,-6.8335,-6.833,-6.8389,-6.8399,-6.8419,-6.8458,-6.8438,-6.8475,-6.8467,-6.8504,-6.85,-6.856,-6.8567,-6.857,-6.8569,-6.8573,-6.8573,-6.8587,-6.8582,-6.856,-6.856,-6.8559,-6.8558,0,-6.8077,-6.814,-6.8201,-6.8216,-6.8245,-6.8273,-6.8286,-6.8307,-6.833,-6.836,-6.8375,-6.8409,-6.8428,-6.8454,-6.8451,-6.8418,-6.8521,-6.8475,-6.8524,-6.8525,-6.8548,-6.8547,-6.869,-6.8557,-6.8557,-6.8557,-6.8556,0,-6.7999,-6.8031,-6.8116,-6.8141,-6.8157,-6.8195,-6.823,-6.8262,-6.8285,-6.8286,-6.8309,-6.8295,-6.8344,-6.8299,-6.8367,-6.8326,-6.8346,-6.8352,-6.8356,-6.8361,-6.8312,-6.8396,-6.853,-6.8546,-6.8366,-6.8364,-6.8363,0,-6.7883,-6.797,-6.7965,-6.8046,-6.8086,-6.8063,-6.8105,-6.8125,-6.813,-6.8164,-6.8168,-6.8205,-6.8171,-6.8182,-6.8215,-6.8221,-6.8274,-6.8213,-6.8263,-6.8265,-6.8261,-6.8384,-6.8406,-6.8501,-6.8342,-6.8344,-6.8346,0,-6.7794,-6.7827,-6.7841,-6.7859,-6.7885,-6.7916,-6.7964,-6.8,-6.8023,-6.8045,-6.8086,-6.8136,-6.8114,-6.8131,-6.8122,-6.8157,-6.8238,-6.8127,-6.8127,-6.815,-6.833,-6.8352,-6.8367,-6.8224,-6.8227,-6.8229,-6.833,0,-6.7681,-6.7723,-6.7761,-6.7796,-6.782,-6.7868,-6.7867,-6.7892,-6.7882,-6.7885,-6.7943,-6.7955,-6.7989,-6.8004,-6.7993,-6.8073,-6.806,-6.8034,-6.799,-6.807,-6.8103,-6.8117,-6.7941,-6.794,-6.7939,-6.7938,0,0,-6.7571,-6.763,-6.7621,-6.7667,-6.7687,-6.7661,-6.7713,-6.7728,-6.7759,-6.7773,-6.7749,-6.7821,-6.7831,-6.7901,-6.7925,-6.7937,-6.7952,-6.7923,-6.8031,-6.8042,-6.8051,-6.8087,-6.8101,-6.7936,-6.7935,-6.7935,-6.7935,0,-6.753,-6.7543,-6.7594,-6.761,-6.7634,-6.7634,-6.7646,-6.7664,-6.7667,-6.7722,-6.7698,-6.7731,-6.7786,-6.7802,-6.7817,-6.7915,-6.7894,-6.7924,-6.798,-6.802,-6.8032,-6.8043,-6.808,-6.8093,-6.7932,-6.7932,-6.7932,0,-6.7444,-6.7457,-6.7481,-6.7523,-6.7537,-6.7576,-6.7531,-6.7572,-6.7601,-6.7567,-6.7621,-6.7627,-6.7646,-6.771,-6.7738,-6.7717,-6.7843,-6.78,-6.7807,-6.781,-6.7849,-6.7863,-6.7876,-6.7709,-6.7708,-6.7707,0,0,-6.7408,-6.7445,-6.7457,-6.7513,-6.7524,-6.7524,-6.7543,-6.7535,-6.7554,-6.7561,-6.7568,-6.7586,-6.7619,-6.764,-6.7669,-6.7739,-6.7744,-6.7773,-6.7783,-6.7792,-6.78,-6.7841,-6.7855,-6.7705,-6.7705,-6.7704,0,0,-6.739,-6.7407,-6.7394,-6.7459,-6.7479,-6.7492,-6.7527,-6.751,-6.7537,-6.7531,-6.7516,-6.752,-6.758,-6.7585,-6.7548,-6.7654,-6.7611,-6.762,-6.7648,-6.7662,-6.7672,-6.767,-6.7502,0,0,0,0,0,-6.7347,-6.7405,-6.7393,-6.7404,-6.7453,-6.7499,-6.7505,-6.7496,-6.7467,-6.7495,-6.7499,-6.7474,-6.7563,-6.753,-6.754,-6.7582,-6.7668,-6.7675,-6.7681,-6.7734,-6.7748,-6.776,0,0,0,0,0,0,-6.7351,-6.7364,-6.7391,-6.7408,-6.7419,-6.7497,-6.7446,-6.7445,-6.7464,-6.7459,-6.7475,-6.7475,-6.7467,-6.7524,-6.7534,-6.7573,-6.7499,-6.7671,-6.7676,-6.7681,-6.7739,-6.775,-6.776,0,0,0,0,0,-6.7354,-6.7364,-6.7447,-6.7407,-6.7416,-6.7418,-6.7444,-6.7443,-6.7457,-6.7461,-6.7461,-6.7448,-6.7468,-6.7475,-6.753,-6.7569,-6.7493,-6.7496,-6.7674,-6.7679,-6.7683,-6.7745,0,0,0,0,0,0,-6.7356,-6.7363,-6.7449,-6.7451,-6.7384,-6.7414,-6.7418,-6.7441,-6.7457,-6.7458,-6.7434,-6.743,-6.747,-6.7475,-6.748,-6.7569,-6.7488,-6.7491,-6.7493,-6.7678,-6.7681,-6.7684,0,0,0,0,0,0,-6.7358,-6.7366,-6.745,-6.7422,-6.7421,-6.741,-6.7414,-6.7457,-6.7458,-6.7429,-6.7426,-6.7432,-6.7461,-6.7475,-6.7479,-6.7548,-6.7484,-6.7487,-6.7489,-6.7491,-6.768,-6.7683,0,0,0,0,0,0,-6.7361,-6.7368,-6.7421,-6.742,-6.7419,-6.7447,-6.7448,-6.7499,-6.7435,-6.7428,-6.7429,-6.7427,-6.7462,-6.7466,-6.7478,-6.7546,-6.7547,-6.7484,-6.7486,-6.7488,-6.7489,0,0,0,0,0,0,0,-6.7363,-6.7319,-6.7434,-6.7419,-6.7418,-6.7475,-6.7476,-6.7476,-6.7435,-6.7432,-6.743,-6.7428,-6.7465,-6.7468,-6.7472,-6.7544,0,0,-6.7483,-6.7485,0,0,0,0,0,0,0,0,-6.7316,-6.7319,-6.7434,-6.7434,-6.7435,-6.7475,-6.7476,-6.7476,-6.7434,-6.7432,-6.7431,-6.7429,-6.7466,-6.7469,-6.7472,0,0,0,0,0,0,0,0,0,0,0,0,0,0,0,-6.7434,-6.7434,0,-6.7475,-6.7476,-6.7476,-6.7434,-6.7433,-6.7431,-6.7429,-6.7466,-6.7469,-6.7471,0,0,0,0,0,0,0,0,0,0,0,0,0,0,0,0,0,0,0,0,0,0,0,0,0,0,0,0,0,0,0,0,0,0,0,0,0,0,0,0,0,0,0,0,0,0,0,0,0,0,0,0,0,0,0,0,0,0,0,0,0,0,0,0,0,0,0,0,0]}]]]